Location: Antioch Baptist Church
(32.6696°N, 85.7327°W)
Time: 12:27:31
(UTC+00:00)

Cosmos 2327 Rocket - Pass Details

Date: 14 July 2020
Orbit: 944 x 1008 km, 83.0° (Epoch: 08 August)

Event Time Altitude Azimuth Distance (km) Brightness Sun altitude
Exits shadow 02:57:33 42° 153° (SSE) 1,341 4.7 -22.0°
Maximum altitude 02:59:32 63° 92° (E) 1,064 4.4 -22.3°
Drops below altitude 10° 03:05:32 10° 13° (NNE) 2,677 7.2 -23.2°
Sets 03:08:03 0° 11° (N) 3,620 8.0 -23.5°
